パンスターズ彗星

C/2013 X1 ( PanSTARRS )

English version
Home page
Updated on March 3, 2018

---------------------------------------------------------------------

・ プロフィール

発見日 2013年12月4日
発見光度 20.2等
発見者 Pan-STARRS 1 telescope (Haleakala)

・ 写真集

・ 軌道要素

Epoch 2016 Apr. 2.0 TT = JDT 2457480.5
T 2016 Apr. 20.72551 TT                                 MPCW
q   1.3142718            (2000.0)            P               Q
z  -0.0007434      Peri.  164.45775     +0.82526273     -0.52102796
                   Node   130.95580     -0.54401944     -0.62986010
e   1.0009770      Incl.  163.23187     -0.15160565     -0.57602614
From 3262 observations 2013 Nov. 29-2017 July 18, mean residual 0".8.
     Nongravitational parameters A1 = +2.34, A2 = +0.2072, A3 = -0.6579.

・ 星図

・ 光度変化

        m1 = 5.5 + 5 logΔ + 10.0 log r  [    ,-290]  (              〜2015年 7月 5日)
        m1 = 4.0 + 5 logΔ + 12.5 log r  [-290, -66]  (2015年 7月 5日〜2016年 2月14日)
        m1 = 5.6 + 5 logΔ +  5.0 log r  [ -66,   0]  (2016年 2月14日〜2016年 4月20日)
        m1 = 5.0 + 5 logΔ + 10.0 log r  [   0,  60]  (2016年 4月20日〜2016年 6月19日)
        m1 = 3.0 + 5 logΔ + 20.0 log r  [  60, 150]  (2016年 6月19日〜2016年 9月17日)
        m1 = 7.0 + 5 logΔ + 10.0 log r  [ 150,    ]  (2016年 9月17日〜              )

---------------------------------------------------------------------

軌道要素はM.P.E.C. 2017-T14に掲載されたものです。
星図はステラナビゲータ Ver.8 (アストロアーツ) で作成したものです。
光度グラフはComet for Windowsで作成したものです。

---------------------------------------------------------------------

Copyright(C) Seiichi Yoshida (comet@aerith.net). All rights reserved.